Regional Weather Roundup
Issued by NWS

Home | Current Version | Previous Version | Graphics & Text | Print | Product List | Glossary On
Versions: 1 2 3 4 5 6 7 8 9 10 11 12 13 14 15 16 17 18 19 20 21 22 23 24 25 26 27 28 29 30 31 32 33 34 35 36 37 38 39 40 41 42 43 44 45 46 47 48 49 50
000
ASUS43 KMKX 022000
RWRWI

WISCONSIN REGIONAL WEATHER ROUNDUP
NATIONAL WEATHER SERVICE MILWAUKEE/SULLIVAN WI
300 PM CDT SUN AUG 02 2015

NOTE: "FAIR" INDICATES FEW OR NO CLOUDS BELOW 12,000 FEET WITH NO
SIGNIFICANT WEATHER AND/OR OBSTRUCTIONS TO VISIBILITY.

WIZ001-002-006>008-014>016-023>028-022100-
NORTHWEST WISCONSIN

CITY           SKY/WX    TMP DP  RH WIND       PRES   REMARKS
SUPERIOR ARPT  PTSUNNY   78  59  52 W14       29.66F
ASHLAND        MOSUNNY   77  59  53 NW8G20    29.65R
HAYWARD        CLOUDY    77  57  50 N9G18     29.67R
SIREN          PTSUNNY   77  60  56 NW13G18   29.69S
CUMBERLAND     SUNNY     77  57  50 NW15      29.68S
RICE LAKE      SUNNY     78  60  55 NW9G17    29.69R
CHETEK         PTSUNNY   76  64  67 NW8       29.66R
LADYSMITH      PTSUNNY   76  61  59 N13       29.66S
EAU CLAIRE     PTSUNNY   80  67  64 W17G23    29.64R HX  82
MENOMONIE      PTSUNNY   78  66  66 W15G23    29.66R HX  80
NEW RICHMOND   SUNNY     79  62  55 NW13G18   29.69R HX  80
OSCEOLA        MOSUNNY   81  60  49 NW15      29.72R HX  81
$$

WIZ003>005-009-010-017-018-022100-
NORTH CENTRAL WISCONSIN

CITY           SKY/WX    TMP DP  RH WIND       PRES   REMARKS
MANITOWISH WTR CLOUDY    75  58  55 NW8       29.64F
ARBOR VITAE    PTSUNNY   74  62  64 NW8       29.64S
WOODRUFF       PTSUNNY   74  62  64 NW8       29.64S
RHINELANDER    LGT RAIN  68  63  84 S3        29.64F
EAGLE RIVER    MOSUNNY   72  57  59 CALM      29.63F
LAND O LAKES   MOSUNNY   74  61  63 SW5       29.63F
PHILLIPS       PTSUNNY   73  62  69 NW5       29.65S
TOMAHAWK       LGT RAIN  64  61  91 CALM      29.65S
MEDFORD        CLOUDY    79  67  67 NW16      29.62F HX  81
MERRILL        NOT AVBL
$$

WIZ029-030-035-036-043>047-022100-
CENTRAL WISCONSIN

CITY           SKY/WX    TMP DP  RH WIND       PRES   REMARKS
WAUSAU         PTSUNNY   80  67  64 NW15G23   29.57S HX  82
MOSINEE        PTSUNNY   79  70  73 NW14G21   29.60R HX  81
MARSHFIELD     PTSUNNY   78  69  73 NW12      29.60R THUNDER HX  80
STEVENS POINT  MOSUNNY   88  65  46 SW18G26   29.56F HX  90
WAUPACA        MOSUNNY   94  61  32 W25G32    29.53F HX  94
WAUTOMA        NOT AVBL
WISC RAPIDS    MOSUNNY   89  61  38 W23G31    29.55F HX  89
CAMP DOUGLAS   NOT AVBL
$$

WIZ011>013-019>022-031-037>040-048>050-022100-
NORTHEAST WISCONSIN

CITY           SKY/WX    TMP DP  RH WIND       PRES   REMARKS
ANTIGO         MOSUNNY   74  65  73 N13       29.62R
SHAWANO        PTSUNNY   84  71  65 N15       29.52F THUNDER HX  90
OCONTO         CLOUDY    62  62 100 E3        29.54R
STURGEON BAY   CLOUDY    61  55  82 E13G25    29.61F THUNDER
GREEN BAY      MOSUNNY   92  69  47 SW23G40   29.49F THUNDER HX  97
MANITOWOC      NOT AVBL
APPLETON       PTSUNNY   90  63  40 SW29G37   29.51F HX  90
CLINTONVILLE   MOSUNNY   91  61  35 W21G28    29.50F HX  91
OSHKOSH        SUNNY     90  69  50 SW22G31   29.52F HX  94
$$

WIZ032>034-041-042-053>061-022100-
SOUTHWEST WISCONSIN

CITY           SKY/WX    TMP DP  RH WIND       PRES   REMARKS
LA CROSSE      MOSUNNY   92  65  40 W25       29.61R HX  94
SPARTA         SUNNY     91  65  41 SW15G21   29.60S HX  93
VIROQUA        SUNNY     88  68  50 W17G25    29.66S HX  92
BOSCOBEL       SUNNY     93  69  45 SW14G26   29.64F HX  98
PRAIRIE DU CHI SUNNY     91  67  46 SW14G25   29.65F HX  94
PLATTEVILLE    SUNNY     88  70  56 SW22G29   29.71S HX  93
$$

WIZ056-057-062-063-064-067-068-022100-
SOUTH CENTRAL WISCONSIN

CITY           SKY/WX    TMP DP  RH WIND       PRES   REMARKS
REEDSBURG      SUNNY     91  69  49 SW22G30   29.61F HX  95
BARABOO/DELLS  SUNNY     91  64  40 SW16G26   29.62F HX  92
LONE ROCK      NOT AVBL
MINERAL POINT  SUNNY     88  66  48 SW17G24   29.69F HX  90
MADISON        MOSUNNY   89  68  49 SW12G21   29.63F HX  93
MIDDLETON      SUNNY     91  65  42 SW17G25   29.65F HX  93
WATERTOWN      SUNNY     87  70  57 SW22G28   29.64F HX  92
MONROE         SUNNY     88  66  48 SW24G32   29.70F HX  90
JANESVILLE     SUNNY     91  64  40 MISG      29.68F HX  93
$$

WIZ051-052-058>065-066-070>072-022100-
SOUTHEAST WISCONSIN

CITY           SKY/WX    TMP DP  RH WIND       PRES   REMARKS
MILWAUKEE      MOSUNNY   92  66  42 SW22G36   29.63F HX  94
WAUKESHA       SUNNY     88  66  48 SW18G31   29.66F HX  90
MILWAUKEE/TIMM SUNNY     90  63  40 SW21G31   29.62F HX  90
RACINE         SUNNY     92  66  42 SW23G35   29.66F HX  94
BURLINGTON     SUNNY     87  65  47 SW22G32   29.68F HX  89
KENOSHA        SUNNY     91  68  46 SW25G35   29.68F HX  95
FOND DU LAC    SUNNY     89  70  53 SW23G38   29.55F HX  94
SHEBOYGAN      SUNNY     91  69  48 SW28G39   29.52F HX  96
WEST BEND      SUNNY     90  64  43 SW21G26   29.60F HX  91
JUNEAU         SUNNY     85  70  60 SW21G31   29.64F HX  90
$$

LSZ147-162-022100-
LAKE SUPERIOR

STATION/POSITION TIME  TEMP    WIND        PRES    WAVE
                       AIR SEA DIR/SP/G            HT/PER
                 (UTC) (F)     (DEG/KT/KT) (MB)    (FT/S)
W MID LAKE BUOY  1850   59 55  280/ 10/ 10 1002.3R   1
DEVILS ISLAND    1900   65     240/ 14/ 16 1003.4R
PORT WING        1900   70     260/ 10/ 13 1004.4R
SAXON HARBOR     1940   69                 1003.7R
$$

LMZ867-665-643>646-022100-
LAKE MICHIGAN

STATION/POSITION TIME  TEMP    WIND        PRES    WAVE
                       AIR SEA DIR/SP/G            HT/PER
                 (UTC) (F)     (DEG/KT/KT) (MB)    (FT/S)
CHAMBERS ISLAND  1900   65     300/ 32     1003.7R
N MID LAKE BUOY  1850   69 69  170/ 16/ 17 1000.9F   2/ 5
NORTHPORT PIER   1900   69     180/  4/ 21 1002.7R
SISTER BAY       1815   75     150/  7/ 10   N/A
ALGOMA LAKESHORE 1927          230/ 10/ 12   N/A
KEWAUNEE LAKESHO 1900   63     180/ 14/ 16 1000.2F
SHEBOYGAN LAKESH 1900   88     240/ 25/ 29 1001.4F
PORT WASHINGTON  1928   92     250/ 14/ 25 1003.0F
ATWATER BUOY     1900   81 53  210/ 17/ 23 1005.2F
MILWAUKEE LAKESH 1900   87     240/ 23/ 32   N/A
KENOSHA   LAKESH 1900   89     240/ 18/ 28 1005.1F
$$

TC  - TEMPERATURE IN CELSIUS
VSB - VISIBILITY IN STATUTE MILES
WCI - WIND CHILL INDEX
HX  - HEAT INDEX



USA.gov is the U.S. government's official web portal to all federal, state and local government web resources and services.